Showing default

COSMOS 1832, 17587

Orbit data source: Space-Track

COSMOS 1832, 17587 is a payload satellite owned by UNKS (CIS) in LEO that was launched on Fri, 13 Mar 1987 UTC via a TSIKLON-3 launch vehicle from the Plesetsk Missile And Space Complex (PKMTR). Payload-class satellites include a variety of spacecraft equipped with specific instruments for various scientific and technological missions. These include communications satellites like Starlink; space stations such as the ISS; scientific satellites like the Hubble; Earth observation satellites from companies like Planet Labs, Umbra, and HawkEye 360; GPS; miniature CubeSats for education and research; and military/defense satellites.

Loading next visibility...
Identifier
17587, 1987-026F
Orbit
LEO
Last TLE update
19 hours ago
Origin
Manufacturer
NPO PM
Mission
Defense Communications
Bus & Motor
STRELA-3, Unknown motor
Mass
225 kg wet, 225 kg dry
Launch date (UTC)
1987-03-13 (38 years ago)
Launch vehicle
TSIKLON-3
Launch site
Plesetsk Missile And Space Complex (PKMTR)
Object type
Payload
Rocket body
Debris
Shape & HBR
Cyl, 1.6 m
Radar Cross Section
1.257 m², Large (>1 m²)

Expand to show TLE details & history

TLE from 19 hours ago
0 COSMOS 1832
1 17587U 87026F   25128.44859748  .00000028  00000-0  96317-4 0  9998
2 17587  82.5647 101.2606 0009715  31.4879  90.0751 12.64331006760801
Epoch: 2025-05-08T10:45Z
Definitive object data (Epoch: 2025-05-08T10:45:58.822Z)
Latitude
57.64373°
Longitude
-118.58125°
Altitude
1,414.778 km
Speed
7.158 km/s
True Right ascension
17h 57m 43s
True Declination
57° 30' 04"
Sunlit
Object was in daylight at TLE epoch
Visualization TLE readout
Latitude
28.67654°
Longitude
76.82495°
Altitude
1,400.967 km
Speed
7.165 km/s
Apparent Right ascension
04h 45m 35s
Apparent Declination
-2° 18' 29"
Sunlit
Object is in daylight
Visualization observer readout
Local Sidereal Time
13:24:48
Azimuth
296.309° NW
Elevation
-31.093°
Doppler factor
1
Orbital elements
Apogee altitude
1,409.996 km
Perigee altitude
1,394.879 km
Semi-major axis
7,780.574 km
Eccentricity
0.0009715
Inclination
82.5647°
RAAN
101.2606°
Arg. of periapsis
31.4879°
True anomaly
90.18643°
Mean anomaly
90.0751°
Eccentric anomaly
90.13076°
Mean motion
3.16246 °/min
BSTAR
0.000096317
Orbital period
113.84 mins
Loading maneuver chart data...
Loading SW <> Apogee altitude chart data...
Loading historical data...
Loading historical data...
Loading historical data...
Loading historical data...
Loading historical data...
Loading historical data...
Loading historical data...

COSMOS 1832 Visibility forecast

Observer location: undefined°, undefined°

Span
Click to sort rows by Start time (UTC) header in descending order
Start Az.
Max El. time (UTC)
Max El. Az.
Max El.
End time (UTC)
End Az.
14 mins2025-05-09 09:32:09.699Z1.963° NNE2025-05-09 09:39:09.699Z89.791° E41.152°2025-05-09 09:46:09.699Z157.147° SSE
11 mins2025-05-09 11:28:09.699Z320.991° NNW2025-05-09 11:33:09.699Z275.6° WNW24.078°2025-05-09 11:39:09.699Z226.756° WSW
15 mins2025-05-09 22:18:09.699Z167.03° S2025-05-09 22:25:09.699Z93.007° ESE41.088°2025-05-09 22:33:09.699Z14.835° NNE
12 mins2025-05-10 00:15:09.699Z242.487° WSW2025-05-10 00:20:09.699Z286.761° WNW24.734°2025-05-10 00:27:09.699Z346.12° N
|